sat.trackr.live / text

‹ back to catalog

STARLINK-30838

NORAD 58211 · 2023-170F

PAYLOAD ACTIVE UNKNOWN

§ Identity

Operator
Country
US
Launch date
2023-11-03
Launch site
AFETR
Launch vehicle
Mass (kg)
RCS (m²)

Purposes: comms

External: N2YO · Heavens-Above · Gunter

§ Orbital elements

Epoch: 2026-09-20T19:35:37.695264Z

Period
94.27 min
Inclination
43.0031°
Eccentricity
0.0001698
Mean motion
15.27576892 rev/d
Perigee alt
481.9 km
Apogee alt
484.2 km
Semi-major
6,861.2 km
B*
1.8873e-5
RAAN
172.0785°
Arg perigee
263.5030°
Mean anomaly
96.5628°
Rev number
16,014

§ Raw data

STARLINK-308381 58211U 23170F   26263.81640851  .00000257  00000+0  18873-4 0  99962 58211  43.0031 172.0785 0001698 263.5030  96.5628 15.27576892160143

JSON: /api/v1/satellites/58211 · /tle

For live sub-satellite position, see the globe view (requires WebGL).

§ Visibility from observer

Set your observer location to see the next 7 days of passes ≥ 10°. The values pass through the URL so the page stays shareable.

No JS? Fill the form by hand. The geolocation button needs JavaScript.